Aeroporto :
LOGIN :

Iscrizione | Disclaimer

   EN    FR    IT 

 










Sommario :    VFR   VFR Marginale   IFR   IFR Intensivo   IFR Molto Intensivo
Visibilità : 
Base nubi : 
>= 8 km
>= 3000ft
5 / 8 km
1000 / 3000 ft
1500m / 5 km
500 / 1000 ft
800 / 1500m
200 / 500 ft
< 800m
< 200 ft
Simboli :   Temporali  Nebbia  Neve Forte  Precipitazioni Forti  Vento > 20 kt
SIGMETs :   Varie  Temporali  Ghiacco  Turbolenza  Onda orograficha  Ceneri Vulcaniche







- Altitudine del aeroporto : 1411 ft
- Codice IATA : ZHI


LSZG - Grenchen

ULTIMO METAR :
  • 190550Z AUTO VRB03KT 9999 // FEW050 OVC110 19/10 Q1018

METARs OBSOLETI :
  • 190520Z AUTO VRB03KT 9999 // FEW032 SCT037 BKN045 19/10 Q1018
  • 190450Z AUTO 24003KT 9999 SCT011 SCT016 BKN023 18/18 Q1018
  • 190420Z AUTO VRB03KT 9999 // BKN009 BKN110 19/10 Q1017

TAF TAF LSZG
Valido dal 19 a 06 ore il 19 a 15 ore UTC


190525Z 1906/1915 VRB03KT 9999 FEW010 SCT015 BKN030
TEMPO 1906/1915 SHRA SCT025TCU
PROB30
TEMPO 1912/1915 22015G25KT 4000 TSRA SCT020CB
ATIS : +41 32 396 96 33
Nessun NOTAM noto per questo aeroporto.



MetMap, La meteo Aeronautica in un colpo d'occhio ! - Copyright ORBIFLY Dicembre 2007 - Disclaimer

ORBIFLY MET'MAP TEAM :

Programmazione e sviluppo : Alexandra Zaïnal
Concezione e sviluppo : Baudouin d'Aumeries
Co-Programmazione e sviluppo : Marc-Olivier Méhu
Supporto tecnico e logistico : Manuel Goepfert
Aiuto per la traduzione : Arnaldo La Scala

Contatto : metmap@orbifly.com




FONTI E CREDITI :

   NOAA